Regional Weather Roundup
Issued by NWS Charleston, SC

Current Version | Previous Version | Graphics & Text | Print | Product List | Glossary On
Versions: 1 2 3 4 5 6 7 8 9 10 11 12 13 14 15 16 17 18 19 20 21 22 23 24 25 26 27 28 29 30 31 32 33 34 35 36 37 38 39 40 41 42 43 44 45 46 47 48 49 50
000 ASUS42 KCHS 251927 RWRCHS REGIONAL WEATHER ROUNDUP NATIONAL WEATHER SERVICE CHARLESTON SC 300 PM EDT THU MAY 25 2017 NOTE: "FAIR" INDICATES FEW OR NO CLOUDS BELOW 12,000 FEET WITH NO SIGNIFICANT WEATHER AND/OR OBSTRUCTIONS TO VISIBILITY. NOT ALL STATIONS ARE QUALITY CONTROLLED. USE DATA WITH CAUTION... ESPECIALLY DEWPOINT OBSERVATIONS. SCZ027-030-031-034>040-042>050-252000- ...SOUTHEAST SOUTH CAROLINA... CITY SKY/WX TMP DP RH WIND PRES REMARKS N CHARLESTON MOSUNNY 75 50 41 W16G29 29.73R WATERFRONT PRK N/A 74 54 49 W12G18 29.70F JOHNS ISLAND FAIR 77 54 44 W20G26 29.73S PINOPOLIS N/A 72 57 60 W20G26 29.62S MONCKS CORNER MOCLDY 73 50 43 W13G21 29.72R SUMMERVILLE MOCLDY 73 54 49 W10G22 29.74R BEAUFORT MCAS MOSUNNY 77 53 43 W16G26 29.76R BEAUFORT ARPT FAIR 75 54 46 W13G21 29.75S HILTON HEAD IS MOSUNNY 75 52 43 SW15G25 29.77S WALTERBORO MOCLDY 75 52 43 W20G26 29.75R ALLENDALE FAIR 73 52 46 W12G20 29.74F ...SOUTHERN MIDLANDS AND PEE DEE... CITY SKY/WX TMP DP RH WIND PRES REMARKS GEORGETOWN MOCLDY 73 52 46 W15G24 29.71R KINGSTREE MOCLDY 72 54 53 SW17G24 29.70R ORANGEBURG MOSUNNY 74 53 48 W16G29 29.72R BARNWELL MOCLDY 73 55 53 W18G26 29.75R AIKEN FAIR 72 52 49 W16G28 29.77S MANNING FAIR 72 59 64 W20G28 29.71S COLUMBIA PTSUNNY 72 55 55 W24 29.70R SUMTER MOSUNNY 71 56 59 W20G30 29.67S FLORENCE MOSUNNY 69 59 70 SW14 29.67R MYRTLE BEACH TSTM 66 55 68 W12G28 29.71R N MYRTLE BEACH CLOUDY 63 58 83 SW8 29.70R $$ GAZ063-065-086>088-099>101-113>116-118-119-134>141-150-252000- ...SOUTHEAST GEORGIA... CITY SKY/WX TMP DP RH WIND PRES REMARKS SAVANNAH ARPT MOSUNNY 82 50 32 W18G29 29.78R HUNTER AAF SUNNY 77 59 53 W14G28 29.76R FORT STEWART SUNNY 76 50 39 W18G24 29.77S STATESBORO MOSUNNY 75 54 46 W16G22 29.79S SYLVANIA PTCLDY 74 56 52 W9G20 29.79R CLAXTON FAIR 75 57 54 SW15G24 29.81R ...CSRA...CENTRAL AND FAR SOUTHEAST GEORGIA... CITY SKY/WX TMP DP RH WIND PRES REMARKS THOMSON MOSUNNY 73 50 45 NW15G22 29.81F AUGUSTA-BUSH MOSUNNY 76 53 44 W15G25 29.75R AUGUSTA-DANIEL MOSUNNY 74 49 41 W13G28 29.76R SWAINSBORO MOCLDY 73 52 46 W12G24 29.81S VIDALIA PTSUNNY 75 54 46 W12G20 29.82R EASTMAN CLOUDY 73 38 28 W7 29.85S HAZLEHURST FAIR 76 52 42 NW9G18 29.82S ALMA MOSUNNY 78 50 37 W16 29.83R WAYCROSS SUNNY 81 54 39 W14G25 29.82S JESUP FAIR 79 45 29 NW16 29.82R BAXLEY FAIR 77 54 44 NW17 29.82R BRUNSWICK SUNNY 79 54 41 W14G30 29.81S SAINT SIMONS SUNNY 80 48 32 W16G26 29.80S $$ SCZ027-028-034-036>038-045-046-048>050-GAZ119-141-252000- ...LAKE AND SUPPLEMENTAL COASTAL OBSERVATIONS... STATION/POSITION TIME TEMP WIND PRES WAVE SWELL AIR SEA DIR/SP/G HT/PER HT/PER/DIR (UTC) (F) (DEG/KT/KT) (MB) (FT/S) (FT/S/D) WINYAH BAY 1845 67 310/ 11 1005.0R LAKE MURRAY 1920 71 260/ 21/ 30 1005.1R ACE BASIN NERRS 1845 75 250/ 6 1007.0S FORT PULASKI 1900 74 270/ 15/ 23 1008.5 SAPELO ISLAND 1900 77 270/ 17 1009.0 $$ ANZ835-935-AMZ111-154-330-350-352-354-370-450-454-472-252000- ...C-MAN AND BUOY OBSERVATIONS... STATION/POSITION TIME TEMP WIND PRES WAVE SWELL AIR SEA DIR/SP/G HT/PER HT/PER/DIR (UTC) (F) (DEG/KT/KT) (MB) (FT/S) (FT/S/D) BUOY 41004 1910 72 75 250/ 21/ 29 1006.8 BUOY 41008 1850 74 77 250/ 21/ 27 1008.4F 5/ 5 2/ 90/ 8 FOLLY BEACH CMAN 1900 75 250/ 14/ 21 1007.4R CAPERS NEARSHORE 1908 78 77 260/ 21/ 27 1006.2R FRIPP NEARSHORE 1908 74 77 280/ 17/ 25 1007.5R STATION/POSITION TIME TEMP WIND PRES WAVE SWELL AIR SEA DIR/SP/G HT/PER HT/PER/DIR (UTC) (F) (DEG/KT/KT) (MB) (FT/S) (FT/S/D) 5E ST. MARYS GA 1900 78 N/A 3/ 4 FRYING PAN BUOY 1910 71 75 230/ 29/ 35 1004.5 BUOY 41025 1850 76 78 230/ 27/ 31 1001.9F 9/ 9 7/200/ 9 CAPE LOOKOUT NC 1900 75 220/ 21/ 28 1002.3F BUOY 41002 1850 71 76 200/ 25/ 33 1008.8R 11/ 8 BUOY 41010 1910 78 78 290/ 16/ 19 1011.3 ST AUGUSTINE FL 1900 78 78 280/ 11/ 16 1011.0S $$

USA.gov is the U.S. government's official web portal to all federal, state and local government web resources and services.